Location: *
(57.8420°S, 159.8600°W)
Time: 03:52:21
(UTC+00:00)

Cosmos 1825 Rocket - Pass Details

Date: 18 May 2021
Orbit: 604 x 631 km, 82.5° (Epoch: 23 June)

Event Time Altitude Azimuth Distance (km) Brightness Sun altitude
Rises 03:43:27 0° 345° (NNW) 2,901 7.6 -9.8°
Reaches altitude 10° 03:45:40 10° 343° (NNW) 1,998 6.7 -10.1°
Maximum altitude 03:50:06 78° 257° (WSW) 647 3.8 -10.6°
Drops below altitude 10° 03:54:34 10° 169° (S) 2,009 5.9 -11.2°
Sets 03:56:49 0° 167° (SSE) 2,918 6.7 -11.5°
